#datetime,building,power
2022-07-14T00:01:00,och,11.40
2022-07-14T00:02:00,och,4.20
2022-07-14T00:03:00,och,6.01
2022-07-14T00:05:00,och,11.40
2022-07-14T00:06:00,och,5.39
2022-07-14T00:08:00,och,12.01
2022-07-14T00:10:00,och,9.59
2022-07-14T00:12:00,och,12.00
2022-07-14T00:14:00,och,9.61
2022-07-14T00:16:00,och,12.00
2022-07-14T00:18:00,och,9.59
2022-07-14T00:19:00,och,6.01
2022-07-14T00:21:00,och,11.40
2022-07-14T00:22:00,och,6.01
2022-07-14T00:24:00,och,11.40
2022-07-14T00:25:00,och,4.20
2022-07-14T00:27:00,och,11.40
2022-07-14T00:29:00,och,12.00
2022-07-14T00:31:00,och,9.59
2022-07-14T00:32:00,och,6.01
2022-07-14T00:34:00,och,11.40
2022-07-14T00:36:00,och,11.40
2022-07-14T00:37:00,och,6.01
2022-07-14T00:38:00,och,4.20
2022-07-14T00:40:00,och,11.40
2022-07-14T00:42:00,och,12.00
2022-07-14T00:44:00,och,11.40
2022-07-14T00:45:00,och,5.41
2022-07-14T00:47:00,och,12.00
2022-07-14T00:48:00,och,5.41
2022-07-14T00:50:00,och,11.40
2022-07-14T00:51:00,och,4.80
2022-07-14T00:52:00,och,5.39
2022-07-14T00:54:00,och,11.41
2022-07-14T00:55:00,och,5.99
2022-07-14T00:57:00,och,10.21
2022-07-14T00:59:00,och,11.40
2022-07-14T01:01:00,och,10.20
2022-07-14T01:03:00,och,11.40
2022-07-14T01:05:00,och,11.41
2022-07-14T01:06:00,och,5.99
2022-07-14T01:08:00,och,10.21
2022-07-14T01:09:00,och,5.39
2022-07-14T01:10:00,och,4.20
2022-07-14T01:12:00,och,10.20
2022-07-14T01:14:00,och,10.21
2022-07-14T01:16:00,och,11.40
2022-07-14T01:18:00,och,10.20
2022-07-14T01:20:00,och,11.40
2022-07-14T01:21:00,och,6.01
2022-07-14T01:23:00,och,11.40
2022-07-14T01:24:00,och,6.01
2022-07-14T01:26:00,och,11.40
2022-07-14T01:27:00,och,5.41
2022-07-14T01:28:00,och,4.79
2022-07-14T01:29:00,och,5.41
2022-07-14T01:31:00,och,11.40
2022-07-14T01:33:00,och,12.00
2022-07-14T01:35:00,och,9.61
2022-07-14T01:37:00,och,10.20
2022-07-14T01:39:00,och,10.20
2022-07-14T01:41:00,och,11.41
2022-07-14T01:42:00,och,5.99
2022-07-14T01:43:00,och,5.41
2022-07-14T01:45:00,och,12.00
2022-07-14T01:47:00,och,9.59
2022-07-14T01:48:00,och,6.01
2022-07-14T01:50:00,och,11.40
2022-07-14T01:52:00,och,11.41
2022-07-14T01:53:00,och,5.99
2022-07-14T01:55:00,och,10.20
2022-07-14T01:57:00,och,10.21
2022-07-14T01:59:00,och,9.59
2022-07-14T02:00:00,och,6.01
2022-07-14T02:02:00,och,10.20
2022-07-14T02:04:00,och,11.40
2022-07-14T02:06:00,och,11.41
2022-07-14T02:08:00,och,25.80
2022-07-14T02:09:00,och,14.40
2022-07-14T02:10:00,och,10.20
2022-07-14T02:12:00,och,11.40
2022-07-14T02:14:00,och,12.01
2022-07-14T02:16:00,och,9.59
2022-07-14T02:18:00,och,12.00
2022-07-14T02:20:00,och,9.61
2022-07-14T02:21:00,och,5.99
2022-07-14T02:23:00,och,10.20
2022-07-14T02:25:00,och,10.21
2022-07-14T02:27:00,och,8.39
2022-07-14T02:29:00,och,10.21
2022-07-14T02:30:00,och,5.39
2022-07-14T02:32:00,och,12.00
2022-07-14T02:34:00,och,9.61
2022-07-14T02:36:00,och,12.00
2022-07-14T02:37:00,och,5.41
2022-07-14T02:38:00,och,4.19
2022-07-14T02:40:00,och,12.01
2022-07-14T02:41:00,och,5.39
2022-07-14T02:43:00,och,10.20
2022-07-14T02:44:00,och,6.01
2022-07-14T02:46:00,och,11.40
2022-07-14T02:47:00,och,4.20
2022-07-14T02:49:00,och,11.40
2022-07-14T02:51:00,och,10.21
2022-07-14T02:52:00,och,5.99
2022-07-14T02:54:00,och,11.40
2022-07-14T02:56:00,och,10.21
2022-07-14T02:58:00,och,11.40
2022-07-14T03:00:00,och,11.40
2022-07-14T03:02:00,och,8.41
2022-07-14T03:04:00,och,10.20
2022-07-14T03:06:00,och,10.20
2022-07-14T03:08:00,och,10.21
2022-07-14T03:10:00,och,10.20
2022-07-14T03:11:00,och,10.20
2022-07-14T03:12:00,och,9.59
2022-07-14T03:13:00,och,6.01
2022-07-14T03:15:00,och,10.20
2022-07-14T03:16:00,och,5.41
2022-07-14T03:18:00,och,10.20
2022-07-14T03:20:00,och,10.21
2022-07-14T03:21:00,och,4.19
2022-07-14T03:23:00,och,11.40
2022-07-14T03:24:00,och,4.80
2022-07-14T03:26:00,och,11.40
2022-07-14T03:27:00,och,5.41
2022-07-14T03:28:00,och,4.80
2022-07-14T03:30:00,och,14.40
2022-07-14T03:31:00,och,5.39
2022-07-14T03:33:00,och,11.41
2022-07-14T03:35:00,och,10.20
2022-07-14T03:37:00,och,11.40
2022-07-14T03:39:00,och,10.21
2022-07-14T03:41:00,och,11.40
2022-07-14T03:43:00,och,10.20
2022-07-14T03:45:00,och,10.20
2022-07-14T03:46:00,och,6.01
2022-07-14T03:48:00,och,11.40
2022-07-14T03:49:00,och,4.20
2022-07-14T03:51:00,och,11.40
2022-07-14T03:53:00,och,10.21
2022-07-14T03:54:00,och,5.99
2022-07-14T03:56:00,och,9.59
2022-07-14T03:57:00,och,6.01
2022-07-14T03:59:00,och,11.40
2022-07-14T04:01:00,och,10.21
2022-07-14T04:02:00,och,5.99
2022-07-14T04:04:00,och,11.40
2022-07-14T04:06:00,och,14.41
2022-07-14T04:07:00,och,7.19
2022-07-14T04:09:00,och,14.40
2022-07-14T04:11:00,och,12.60
2022-07-14T04:12:00,och,7.21
2022-07-14T04:14:00,och,14.40
2022-07-14T04:16:00,och,13.20
2022-07-14T04:18:00,och,14.40
2022-07-14T04:20:00,och,14.40
2022-07-14T04:21:00,och,7.21
2022-07-14T04:23:00,och,13.20
2022-07-14T04:25:00,och,14.40
2022-07-14T04:27:00,och,14.40
2022-07-14T04:29:00,och,12.60
2022-07-14T04:31:00,och,14.40
2022-07-14T04:33:00,och,14.40
2022-07-14T04:34:00,och,7.19
2022-07-14T04:35:00,och,7.21
2022-07-14T04:36:00,och,7.21
2022-07-14T04:38:00,och,14.40
2022-07-14T04:40:00,och,13.20
2022-07-14T04:41:00,och,7.19
2022-07-14T04:43:00,och,14.40
2022-07-14T04:44:00,och,7.21
2022-07-14T04:46:00,och,14.40
2022-07-14T04:47:00,och,7.19
2022-07-14T04:49:00,och,14.40
2022-07-14T04:51:00,och,14.40
2022-07-14T04:53:00,och,12.61
2022-07-14T04:55:00,och,14.40
2022-07-14T04:57:00,och,14.40
2022-07-14T04:59:00,och,13.20
2022-07-14T05:01:00,och,14.40
2022-07-14T05:03:00,och,13.20
2022-07-14T05:05:00,och,14.40
2022-07-14T05:07:00,och,12.60
2022-07-14T05:09:00,och,14.40
2022-07-14T05:11:00,och,13.20
2022-07-14T05:13:00,och,14.40
2022-07-14T05:15:00,och,12.60
2022-07-14T05:16:00,och,7.21
2022-07-14T05:18:00,och,13.20
2022-07-14T05:20:00,och,13.20
2022-07-14T05:22:00,och,14.40
2022-07-14T05:24:00,och,12.60
2022-07-14T05:25:00,och,13.21
2022-07-14T05:26:00,och,7.19
2022-07-14T05:28:00,och,12.60
2022-07-14T05:29:00,och,7.21
2022-07-14T05:31:00,och,13.20
2022-07-14T05:33:00,och,17.40
2022-07-14T05:35:00,och,12.60
2022-07-14T05:37:00,och,13.20
2022-07-14T05:39:00,och,15.60
2022-07-14T05:41:00,och,14.40
2022-07-14T05:42:00,och,7.21
2022-07-14T05:44:00,och,13.20
2022-07-14T05:46:00,och,18.59
2022-07-14T05:47:00,och,6.01
2022-07-14T05:49:00,och,14.40
2022-07-14T05:50:00,och,5.41
2022-07-14T05:52:00,och,13.20
2022-07-14T05:54:00,och,13.20
2022-07-14T05:56:00,och,12.60
2022-07-14T05:58:00,och,16.20
2022-07-14T05:59:00,och,7.21
2022-07-14T06:00:00,och,7.19
2022-07-14T06:01:00,och,5.41
2022-07-14T06:03:00,och,13.20
2022-07-14T06:05:00,och,15.60
2022-07-14T06:06:00,och,8.99
2022-07-14T06:08:00,och,18.60
2022-07-14T06:09:00,och,10.20
2022-07-14T06:11:00,och,19.80
2022-07-14T06:13:00,och,18.60
2022-07-14T06:15:00,och,19.19
2022-07-14T06:17:00,och,19.80
2022-07-14T06:19:00,och,18.60
2022-07-14T06:20:00,och,8.99
2022-07-14T06:22:00,och,18.60
2022-07-14T06:24:00,och,20.41
2022-07-14T06:26:00,och,18.59
2022-07-14T06:28:00,och,18.60
2022-07-14T06:30:00,och,18.60
2022-07-14T06:32:00,och,18.60
2022-07-14T06:34:00,och,19.19
2022-07-14T06:35:00,och,9.61
2022-07-14T06:37:00,och,19.19
2022-07-14T06:38:00,och,8.41
2022-07-14T06:40:00,och,20.41
2022-07-14T06:41:00,och,8.39
2022-07-14T06:43:00,och,18.60
2022-07-14T06:44:00,och,10.20
2022-07-14T06:46:00,och,18.60
2022-07-14T06:48:00,och,18.60
2022-07-14T06:50:00,och,19.19
2022-07-14T06:51:00,och,9.61
2022-07-14T06:53:00,och,23.39
2022-07-14T06:54:00,och,18.60
2022-07-14T06:56:00,och,31.80
2022-07-14T06:57:00,och,10.20
2022-07-14T06:59:00,och,18.60
2022-07-14T07:00:00,och,10.20
2022-07-14T07:02:00,och,18.60
2022-07-14T07:04:00,och,18.60
2022-07-14T07:06:00,och,18.59
2022-07-14T07:08:00,och,18.60
2022-07-14T07:09:00,och,9.01
2022-07-14T07:11:00,och,19.79
2022-07-14T07:13:00,och,19.20
2022-07-14T07:15:00,och,18.60
2022-07-14T07:17:00,och,18.60
2022-07-14T07:18:00,och,10.20
2022-07-14T07:20:00,och,18.60
2022-07-14T07:21:00,och,8.39
2022-07-14T07:23:00,och,19.20
2022-07-14T07:25:00,och,18.60
2022-07-14T07:27:00,och,18.59
2022-07-14T07:28:00,och,10.21
2022-07-14T07:30:00,och,18.59
2022-07-14T07:32:00,och,18.60
2022-07-14T07:34:00,och,18.60
2022-07-14T07:35:00,och,8.99
2022-07-14T07:36:00,och,10.21
2022-07-14T07:38:00,och,18.59
2022-07-14T07:40:00,och,18.60
2022-07-14T07:42:00,och,18.60
2022-07-14T07:44:00,och,20.41
2022-07-14T07:46:00,och,18.59
2022-07-14T07:48:00,och,18.60
2022-07-14T07:49:00,och,10.20
2022-07-14T07:50:00,och,10.21
2022-07-14T07:52:00,och,18.59
2022-07-14T07:54:00,och,18.60
2022-07-14T07:56:00,och,20.41
2022-07-14T07:57:00,och,10.20
2022-07-14T07:59:00,och,19.80
2022-07-14T08:01:00,och,20.39
2022-07-14T08:03:00,och,21.61
2022-07-14T08:04:00,och,10.20
2022-07-14T08:06:00,och,19.80
2022-07-14T08:07:00,och,11.40
2022-07-14T08:09:00,och,20.41
2022-07-14T08:11:00,och,20.41
2022-07-14T08:13:00,och,21.59
2022-07-14T08:15:00,och,19.80
2022-07-14T08:17:00,och,21.59
2022-07-14T08:19:00,och,21.61
2022-07-14T08:21:00,och,21.59
2022-07-14T08:23:00,och,21.61
2022-07-14T08:25:00,och,21.61
2022-07-14T08:26:00,och,10.20
2022-07-14T08:28:00,och,25.80
2022-07-14T08:30:00,och,21.61
2022-07-14T08:32:00,och,23.39
2022-07-14T08:34:00,och,21.61
2022-07-14T08:35:00,och,9.59
2022-07-14T08:37:00,och,23.41
2022-07-14T08:39:00,och,21.59
2022-07-14T08:41:00,och,21.61
2022-07-14T08:43:00,och,22.79
2022-07-14T08:45:00,och,21.61
2022-07-14T08:47:00,och,23.39
2022-07-14T08:49:00,och,22.81
2022-07-14T08:51:00,och,21.59
2022-07-14T08:53:00,och,22.81
2022-07-14T08:55:00,och,21.59
2022-07-14T08:56:00,och,12.00
2022-07-14T08:58:00,och,22.81
2022-07-14T08:59:00,och,10.20
2022-07-14T09:01:00,och,22.81
2022-07-14T09:03:00,och,23.39
2022-07-14T09:05:00,och,22.81
2022-07-14T09:07:00,och,22.79
2022-07-14T09:09:00,och,24.59
2022-07-14T09:11:00,och,23.41
2022-07-14T09:12:00,och,11.40
2022-07-14T09:13:00,och,11.40
2022-07-14T09:15:00,och,22.81
2022-07-14T09:17:00,och,24.59
2022-07-14T09:19:00,och,23.41
2022-07-14T09:21:00,och,22.79
2022-07-14T09:23:00,och,22.81
2022-07-14T09:25:00,och,23.39
2022-07-14T09:27:00,och,24.59
2022-07-14T09:29:00,och,37.21
2022-07-14T09:31:00,och,40.20
2022-07-14T09:33:00,och,36.01
2022-07-14T09:35:00,och,27.60
2022-07-14T09:37:00,och,27.00
2022-07-14T09:39:00,och,26.40
2022-07-14T09:40:00,och,14.41
2022-07-14T09:42:00,och,25.80
2022-07-14T09:43:00,och,12.60
2022-07-14T09:45:00,och,26.40
2022-07-14T09:47:00,och,25.80
2022-07-14T09:49:00,och,25.81
2022-07-14T09:50:00,och,13.20
2022-07-14T09:52:00,och,25.80
2022-07-14T09:53:00,och,12.60
2022-07-14T09:55:00,och,26.41
2022-07-14T09:56:00,och,14.40
2022-07-14T09:58:00,och,27.00
2022-07-14T09:59:00,och,13.20
2022-07-14T10:01:00,och,25.80
2022-07-14T10:02:00,och,13.20
2022-07-14T10:04:00,och,27.01
2022-07-14T10:05:00,och,13.20
2022-07-14T10:07:00,och,25.80
2022-07-14T10:09:00,och,27.60
2022-07-14T10:10:00,och,12.60
2022-07-14T10:11:00,och,14.40
2022-07-14T10:13:00,och,27.60
2022-07-14T10:14:00,och,12.61
2022-07-14T10:16:00,och,27.60
2022-07-14T10:17:00,och,13.20
2022-07-14T10:18:00,och,14.40
2022-07-14T10:20:00,och,23.99
2022-07-14T10:21:00,och,13.20
2022-07-14T10:23:00,och,27.61
2022-07-14T10:24:00,och,12.60
2022-07-14T10:26:00,och,25.80
2022-07-14T10:27:00,och,13.20
2022-07-14T10:29:00,och,25.80
2022-07-14T10:30:00,och,13.21
2022-07-14T10:31:00,och,12.60
2022-07-14T10:33:00,och,26.40
2022-07-14T10:34:00,och,12.60
2022-07-14T10:36:00,och,25.80
2022-07-14T10:37:00,och,13.21
2022-07-14T10:39:00,och,25.80
2022-07-14T10:40:00,och,13.20
2022-07-14T10:42:00,och,25.80
2022-07-14T10:43:00,och,13.20
2022-07-14T10:45:00,och,25.81
2022-07-14T10:47:00,och,28.80
2022-07-14T10:49:00,och,25.80
2022-07-14T10:51:00,och,25.80
2022-07-14T10:53:00,och,27.60
2022-07-14T10:54:00,och,12.61
2022-07-14T10:56:00,och,27.60
2022-07-14T10:58:00,och,25.80
2022-07-14T11:00:00,och,25.80
2022-07-14T11:02:00,och,34.80
2022-07-14T11:04:00,och,38.99
2022-07-14T11:06:00,och,25.81
2022-07-14T11:08:00,och,25.80
2022-07-14T11:10:00,och,24.59
2022-07-14T11:12:00,och,24.61
2022-07-14T11:13:00,och,12.60
2022-07-14T11:15:00,och,24.59
2022-07-14T11:17:00,och,25.80
2022-07-14T11:19:00,och,24.61
2022-07-14T11:21:00,och,25.80
2022-07-14T11:23:00,och,27.60
2022-07-14T11:25:00,och,25.81
2022-07-14T11:27:00,och,27.60
2022-07-14T11:28:00,och,12.60
2022-07-14T11:30:00,och,27.60
2022-07-14T11:31:00,och,27.60
2022-07-14T11:32:00,och,13.20
2022-07-14T11:33:00,och,27.00
2022-07-14T11:35:00,och,25.81
2022-07-14T11:37:00,och,27.60
2022-07-14T11:39:00,och,25.80
2022-07-14T11:40:00,och,13.20
2022-07-14T11:42:00,och,25.80
2022-07-14T11:44:00,och,27.61
2022-07-14T11:45:00,och,12.60
2022-07-14T11:46:00,och,13.20
2022-07-14T11:48:00,och,25.80
2022-07-14T11:50:00,och,27.60
2022-07-14T11:52:00,och,27.01
2022-07-14T11:54:00,och,27.60
2022-07-14T11:56:00,och,28.80
2022-07-14T11:57:00,och,14.40
2022-07-14T11:59:00,och,25.80
2022-07-14T12:00:00,och,13.20
2022-07-14T12:02:00,och,25.80
2022-07-14T12:04:00,och,25.81
2022-07-14T12:05:00,och,13.20
2022-07-14T12:07:00,och,25.80
2022-07-14T12:09:00,och,24.61
2022-07-14T12:11:00,och,23.99
2022-07-14T12:13:00,och,24.59
2022-07-14T12:14:00,och,13.20
2022-07-14T12:16:00,och,24.61
2022-07-14T12:17:00,och,12.60
2022-07-14T12:19:00,och,24.59
2022-07-14T12:20:00,och,13.20
2022-07-14T12:22:00,och,24.01
2022-07-14T12:24:00,och,24.59
2022-07-14T12:26:00,och,24.61
2022-07-14T12:28:00,och,24.59
2022-07-14T12:30:00,och,24.59
2022-07-14T12:32:00,och,24.01
2022-07-14T12:34:00,och,24.59
2022-07-14T12:35:00,och,11.40
2022-07-14T12:37:00,och,24.61
2022-07-14T12:38:00,och,11.40
2022-07-14T12:40:00,och,24.59
2022-07-14T12:42:00,och,23.41
2022-07-14T12:43:00,och,11.40
2022-07-14T12:45:00,och,22.79
2022-07-14T12:47:00,och,23.41
2022-07-14T12:48:00,och,11.40
2022-07-14T12:50:00,och,22.81
2022-07-14T12:52:00,och,24.59
2022-07-14T12:53:00,och,11.40
2022-07-14T12:55:00,och,24.59
2022-07-14T12:57:00,och,25.81
2022-07-14T12:59:00,och,25.80
2022-07-14T13:01:00,och,26.40
2022-07-14T13:02:00,och,11.41
2022-07-14T13:04:00,och,25.80
2022-07-14T13:06:00,och,24.59
2022-07-14T13:08:00,och,25.80
2022-07-14T13:10:00,och,28.81
2022-07-14T13:12:00,och,31.79
2022-07-14T13:14:00,och,34.20
2022-07-14T13:16:00,och,31.80
2022-07-14T13:18:00,och,31.80
2022-07-14T13:20:00,och,30.00
2022-07-14T13:22:00,och,31.80
2022-07-14T13:24:00,och,30.60
2022-07-14T13:26:00,och,31.20
2022-07-14T13:27:00,och,16.20
2022-07-14T13:29:00,och,32.99
2022-07-14T13:30:00,och,25.81
2022-07-14T13:31:00,och,21.59
2022-07-14T13:33:00,och,45.00
2022-07-14T13:35:00,och,50.41
2022-07-14T13:37:00,och,35.99
2022-07-14T13:38:00,och,15.60
2022-07-14T13:40:00,och,34.80
2022-07-14T13:42:00,och,33.00
2022-07-14T13:43:00,och,17.40
2022-07-14T13:45:00,och,51.59
2022-07-14T13:47:00,och,60.60
2022-07-14T13:49:00,och,58.80
2022-07-14T13:50:00,och,28.80
2022-07-14T13:52:00,och,60.60
2022-07-14T13:54:00,och,61.80
2022-07-14T13:55:00,och,30.60
2022-07-14T13:56:00,och,30.00
2022-07-14T13:58:00,och,60.60
2022-07-14T13:59:00,och,30.00
2022-07-14T14:01:00,och,60.60
2022-07-14T14:03:00,och,58.80
2022-07-14T14:05:00,och,57.60
2022-07-14T14:07:00,och,55.21
2022-07-14T14:09:00,och,54.59
2022-07-14T14:11:00,och,47.40
2022-07-14T14:12:00,och,22.79
2022-07-14T14:14:00,och,49.20
2022-07-14T14:15:00,och,22.81
2022-07-14T14:17:00,och,47.99
2022-07-14T14:19:00,och,47.40
2022-07-14T14:21:00,och,48.60
2022-07-14T14:23:00,och,38.99
2022-07-14T14:25:00,och,39.01
2022-07-14T14:27:00,och,38.99
2022-07-14T14:29:00,och,39.01
2022-07-14T14:31:00,och,38.39
2022-07-14T14:32:00,och,20.41
2022-07-14T14:34:00,och,49.19
2022-07-14T14:36:00,och,50.41
2022-07-14T14:38:00,och,48.60
2022-07-14T14:40:00,och,50.39
2022-07-14T14:42:00,och,49.20
2022-07-14T14:44:00,och,50.41
2022-07-14T14:46:00,och,50.39
2022-07-14T14:48:00,och,50.41
2022-07-14T14:50:00,och,50.41
2022-07-14T14:51:00,och,25.80
2022-07-14T14:52:00,och,25.80
2022-07-14T14:54:00,och,50.41
2022-07-14T14:55:00,och,25.80
2022-07-14T14:56:00,och,26.40
2022-07-14T14:58:00,och,50.41
2022-07-14T14:59:00,och,23.99
2022-07-14T15:01:00,och,50.41
2022-07-14T15:02:00,och,33.60
2022-07-14T15:04:00,och,60.00
2022-07-14T15:05:00,och,24.59
2022-07-14T15:06:00,och,25.80
2022-07-14T15:07:00,och,24.61
2022-07-14T15:09:00,och,52.19
2022-07-14T15:10:00,och,25.81
2022-07-14T15:12:00,och,50.39
2022-07-14T15:13:00,och,25.81
2022-07-14T15:15:00,och,51.59
2022-07-14T15:17:00,och,50.41
2022-07-14T15:19:00,och,52.19
2022-07-14T15:21:00,och,48.60
2022-07-14T15:22:00,och,26.40
2022-07-14T15:24:00,och,48.60
2022-07-14T15:26:00,och,49.20
2022-07-14T15:27:00,och,24.59
2022-07-14T15:29:00,och,50.41
2022-07-14T15:30:00,och,23.99
2022-07-14T15:32:00,och,49.20
2022-07-14T15:34:00,och,50.41
2022-07-14T15:36:00,och,49.19
2022-07-14T15:37:00,och,24.01
2022-07-14T15:39:00,och,49.19
2022-07-14T15:41:00,och,49.20
2022-07-14T15:43:00,och,48.60
2022-07-14T15:45:00,och,47.40
2022-07-14T15:47:00,och,49.19
2022-07-14T15:49:00,och,44.40
2022-07-14T15:50:00,och,23.41
2022-07-14T15:52:00,och,47.40
2022-07-14T15:53:00,och,20.39
2022-07-14T15:55:00,och,40.21
2022-07-14T15:56:00,och,19.79
2022-07-14T15:57:00,och,19.20
2022-07-14T15:59:00,och,38.41
2022-07-14T16:00:00,och,20.39
2022-07-14T16:01:00,och,18.60
2022-07-14T16:03:00,och,38.99
2022-07-14T16:04:00,och,20.41
2022-07-14T16:06:00,och,38.39
2022-07-14T16:08:00,och,39.01
2022-07-14T16:10:00,och,38.99
2022-07-14T16:11:00,och,20.41
2022-07-14T16:13:00,och,38.39
2022-07-14T16:15:00,och,40.81
2022-07-14T16:17:00,och,40.20
2022-07-14T16:19:00,och,38.99
2022-07-14T16:21:00,och,40.21
2022-07-14T16:23:00,och,40.20
2022-07-14T16:24:00,och,20.41
2022-07-14T16:26:00,och,38.39
2022-07-14T16:27:00,och,19.20
2022-07-14T16:29:00,och,38.39
2022-07-14T16:31:00,och,40.80
2022-07-14T16:32:00,och,18.60
2022-07-14T16:34:00,och,39.01
2022-07-14T16:35:00,och,18.59
2022-07-14T16:37:00,och,39.01
2022-07-14T16:39:00,och,35.99
2022-07-14T16:41:00,och,36.01
2022-07-14T16:43:00,och,36.01
2022-07-14T16:45:00,och,35.99
2022-07-14T16:46:00,och,16.80
2022-07-14T16:47:00,och,19.20
2022-07-14T16:49:00,och,43.20
2022-07-14T16:51:00,och,52.79
2022-07-14T16:53:00,och,36.01
2022-07-14T16:55:00,och,36.01
2022-07-14T16:56:00,och,17.39
2022-07-14T16:58:00,och,36.01
2022-07-14T17:00:00,och,36.01
2022-07-14T17:02:00,och,35.99
2022-07-14T17:04:00,och,36.01
2022-07-14T17:06:00,och,34.79
2022-07-14T17:08:00,och,30.00
2022-07-14T17:09:00,och,13.21
2022-07-14T17:11:00,och,25.80
2022-07-14T17:12:00,och,13.20
2022-07-14T17:14:00,och,25.80
2022-07-14T17:16:00,och,25.81
2022-07-14T17:17:00,och,13.20
2022-07-14T17:18:00,och,12.60
2022-07-14T17:19:00,och,13.20
2022-07-14T17:21:00,och,25.80
2022-07-14T17:23:00,och,25.81
2022-07-14T17:24:00,och,13.20
2022-07-14T17:26:00,och,24.59
2022-07-14T17:28:00,och,31.20
2022-07-14T17:29:00,och,17.40
2022-07-14T17:31:00,och,35.99
2022-07-14T17:32:00,och,18.60
2022-07-14T17:34:00,och,36.01
2022-07-14T17:35:00,och,19.19
2022-07-14T17:37:00,och,34.20
2022-07-14T17:39:00,och,27.60
2022-07-14T17:41:00,och,25.81
2022-07-14T17:43:00,och,25.80
2022-07-14T17:45:00,och,21.59
2022-07-14T17:47:00,och,23.41
2022-07-14T17:49:00,och,21.59
2022-07-14T17:51:00,och,21.61
2022-07-14T17:53:00,och,21.61
2022-07-14T17:54:00,och,9.59
2022-07-14T17:56:00,och,23.39
2022-07-14T17:58:00,och,19.80
2022-07-14T18:00:00,och,20.41
2022-07-14T18:02:00,och,21.59
2022-07-14T18:04:00,och,22.81
2022-07-14T18:06:00,och,20.39
2022-07-14T18:08:00,och,21.61
2022-07-14T18:10:00,och,21.59
2022-07-14T18:12:00,och,21.61
2022-07-14T18:13:00,och,10.20
2022-07-14T18:15:00,och,21.61
2022-07-14T18:17:00,och,30.00
2022-07-14T18:19:00,och,33.00
2022-07-14T18:21:00,och,23.39
2022-07-14T18:23:00,och,21.61
2022-07-14T18:25:00,och,21.59
2022-07-14T18:26:00,och,11.41
2022-07-14T18:28:00,och,21.59
2022-07-14T18:30:00,och,21.61
2022-07-14T18:31:00,och,11.40
2022-07-14T18:33:00,och,21.59
2022-07-14T18:35:00,och,23.41
2022-07-14T18:36:00,och,9.59
2022-07-14T18:38:00,och,23.41
2022-07-14T18:40:00,och,21.59
2022-07-14T18:41:00,och,11.40
2022-07-14T18:43:00,och,22.81
2022-07-14T18:44:00,och,10.20
2022-07-14T18:45:00,och,11.41
2022-07-14T18:47:00,och,23.39
2022-07-14T18:48:00,och,11.40
2022-07-14T18:50:00,och,21.61
2022-07-14T18:52:00,och,21.59
2022-07-14T18:54:00,och,21.61
2022-07-14T18:55:00,och,11.40
2022-07-14T18:57:00,och,21.61
2022-07-14T18:59:00,och,21.59
2022-07-14T19:01:00,och,21.61
2022-07-14T19:02:00,och,10.20
2022-07-14T19:04:00,och,21.61
2022-07-14T19:06:00,och,21.59
2022-07-14T19:08:00,och,20.41
2022-07-14T19:10:00,och,21.59
2022-07-14T19:11:00,och,9.61
2022-07-14T19:13:00,och,21.59
2022-07-14T19:14:00,och,10.21
2022-07-14T19:16:00,och,21.59
2022-07-14T19:18:00,och,21.61
2022-07-14T19:20:00,och,21.59
2022-07-14T19:22:00,och,20.41
2022-07-14T19:24:00,och,21.61
2022-07-14T19:26:00,och,21.59
2022-07-14T19:28:00,och,21.61
2022-07-14T19:29:00,och,11.40
2022-07-14T19:31:00,och,20.41
2022-07-14T19:32:00,och,9.59
2022-07-14T19:34:00,och,19.20
2022-07-14T19:35:00,och,7.19
2022-07-14T19:37:00,och,14.40
2022-07-14T19:39:00,och,14.40
2022-07-14T19:40:00,och,7.21
2022-07-14T19:42:00,och,31.20
2022-07-14T19:43:00,och,10.20
2022-07-14T19:45:00,och,14.40
2022-07-14T19:46:00,och,7.21
2022-07-14T19:48:00,och,13.20
2022-07-14T19:49:00,och,7.19
2022-07-14T19:51:00,och,14.40
2022-07-14T19:53:00,och,14.40
2022-07-14T19:54:00,och,7.21
2022-07-14T19:56:00,och,12.60
2022-07-14T19:57:00,och,7.19
2022-07-14T19:59:00,och,13.21
2022-07-14T20:01:00,och,14.40
2022-07-14T20:03:00,och,14.40
2022-07-14T20:05:00,och,13.20
2022-07-14T20:07:00,och,14.40
2022-07-14T20:09:00,och,14.40
2022-07-14T20:10:00,och,5.41
2022-07-14T20:12:00,och,16.19
2022-07-14T20:14:00,och,14.40
2022-07-14T20:15:00,och,7.21
2022-07-14T20:17:00,och,14.40
2022-07-14T20:18:00,och,7.21
2022-07-14T20:20:00,och,14.40
2022-07-14T20:22:00,och,14.40
2022-07-14T20:23:00,och,7.19
2022-07-14T20:25:00,och,12.60
2022-07-14T20:27:00,och,14.40
2022-07-14T20:29:00,och,14.40
2022-07-14T20:30:00,och,7.21
2022-07-14T20:32:00,och,14.40
2022-07-14T20:34:00,och,14.40
2022-07-14T20:36:00,och,14.40
2022-07-14T20:37:00,och,7.21
2022-07-14T20:39:00,och,14.40
2022-07-14T20:41:00,och,14.40
2022-07-14T20:42:00,och,7.19
2022-07-14T20:43:00,och,7.21
2022-07-14T20:45:00,och,14.40
2022-07-14T20:46:00,och,7.19
2022-07-14T20:48:00,och,14.40
2022-07-14T20:49:00,och,7.21
2022-07-14T20:50:00,och,7.19
2022-07-14T20:52:00,och,14.40
2022-07-14T20:53:00,och,7.21
2022-07-14T20:55:00,och,16.20
2022-07-14T20:57:00,och,14.40
2022-07-14T20:59:00,och,14.40
2022-07-14T21:00:00,och,5.41
2022-07-14T21:01:00,och,7.19
2022-07-14T21:02:00,och,7.21
2022-07-14T21:04:00,och,14.40
2022-07-14T21:06:00,och,14.40
2022-07-14T21:08:00,och,14.40
2022-07-14T21:10:00,och,14.40
2022-07-14T21:11:00,och,7.19
2022-07-14T21:13:00,och,14.40
2022-07-14T21:14:00,och,7.21
2022-07-14T21:16:00,och,14.40
2022-07-14T21:18:00,och,14.40
2022-07-14T21:19:00,och,7.19
2022-07-14T21:21:00,och,14.40
2022-07-14T21:22:00,och,9.01
2022-07-14T21:24:00,och,14.40
2022-07-14T21:26:00,och,14.40
2022-07-14T21:28:00,och,14.40
2022-07-14T21:29:00,och,7.19
2022-07-14T21:31:00,och,15.60
2022-07-14T21:32:00,och,7.21
2022-07-14T21:34:00,och,14.40
2022-07-14T21:36:00,och,14.40
2022-07-14T21:38:00,och,14.40
2022-07-14T21:39:00,och,7.21
2022-07-14T21:41:00,och,14.40
2022-07-14T21:43:00,och,13.20
2022-07-14T21:45:00,och,14.40
2022-07-14T21:47:00,och,14.40
2022-07-14T21:49:00,och,14.40
2022-07-14T21:51:00,och,12.60
2022-07-14T21:53:00,och,14.40
2022-07-14T21:54:00,och,6.01
2022-07-14T21:56:00,och,14.40
2022-07-14T21:58:00,och,12.60
2022-07-14T22:00:00,och,13.20
2022-07-14T22:01:00,och,7.21
2022-07-14T22:03:00,och,14.40
2022-07-14T22:04:00,och,5.99
2022-07-14T22:06:00,och,11.40
2022-07-14T22:07:00,och,4.20
2022-07-14T22:09:00,och,11.40
2022-07-14T22:10:00,och,4.20
2022-07-14T22:12:00,och,10.20
2022-07-14T22:14:00,och,10.21
2022-07-14T22:16:00,och,10.20
2022-07-14T22:18:00,och,10.20
2022-07-14T22:20:00,och,11.41
2022-07-14T22:22:00,och,11.40
2022-07-14T22:24:00,och,11.40
2022-07-14T22:26:00,och,11.40
2022-07-14T22:27:00,och,4.80
2022-07-14T22:29:00,och,9.59
2022-07-14T22:31:00,och,10.21
2022-07-14T22:32:00,och,5.99
2022-07-14T22:34:00,och,10.21
2022-07-14T22:36:00,och,9.59
2022-07-14T22:38:00,och,12.00
2022-07-14T22:40:00,och,18.60
2022-07-14T22:42:00,och,25.80